| time (UTC) | temp C | wind direction | speed KPH | gust KPH | rain 1hr cm | rain 24hr cm | rain mn cm | humidity % | barometer mb |
| 20260504081542 | 18 | 0 | 0.0 | 3.2 | 0.00 | 0.00 | 0.00 | 74 | 1016.8 |
| 20260504044536 | 18 | 0 | 0.0 | 3.2 | 0.00 | 0.00 | 0.00 | 68 | 1019.3 |
| 20260504043043 | 18 | 0 | 0.0 | 3.2 | 0.00 | 0.00 | 0.00 | 68 | 1019.4 |
| 20260504041541 | 18 | 0 | 0.0 | 3.2 | 0.00 | 0.00 | 0.00 | 68 | 1019.3 |
| 20260504040044 | 18 | 0 | 0.0 | 1.6 | 0.00 | 0.00 | 0.00 | 69 | 1019.4 |
| 20260504034537 | 18 | 0 | 0.0 | 3.2 | 0.00 | 0.00 | 0.00 | 68 | 1019.3 |
| 20260504033050 | 18 | 0 | 0.0 | 3.2 | 0.00 | 0.00 | 0.00 | 68 | 1019.2 |
| 20260504031537 | 17 | 0 | 0.0 | 1.6 | 0.00 | 0.00 | 0.00 | 69 | 1019.2 |
| 20260504030041 | 18 | 110 | 0.0 | 1.6 | 0.00 | 0.00 | 0.00 | 68 | 1019.0 |
| 20260504024553 | 17 | 0 | 0.0 | 3.2 | 0.00 | 0.00 | 0.00 | 69 | 1019.2 |
| 20260504023038 | 18 | 0 | 0.0 | 1.6 | 0.00 | 0.00 | 0.00 | 69 | 1019.2 |
| 20260504021547 | 18 | 84 | 0.0 | 3.2 | 0.00 | 0.00 | 0.00 | 69 | 1019.0 |
| 20260504020037 | 18 | 0 | 0.0 | 3.2 | 0.00 | 0.00 | 0.00 | 68 | 1019.1 |
| 20260504014537 | 18 | 0 | 0.0 | 0.0 | 0.00 | 0.00 | 0.00 | 68 | 1019.2 |
| 20260504013047 | 18 | 0 | 0.0 | 1.6 | 0.00 | 0.00 | 0.00 | 66 | 1019.2 |
| 20260504011541 | 19 | 0 | 0.0 | 3.2 | 0.00 | 0.00 | 0.00 | 66 | 1019.2 |
| 20260504010038 | 20 | 0 | 0.0 | 0.0 | 0.00 | 0.00 | 0.00 | 65 | 1019.1 |
| 20260504004546 | 21 | 0 | 0.0 | 4.8 | 0.00 | 0.00 | 0.00 | 62 | 1019.0 |
| 20260504003037 | 21 | 0 | 0.0 | 6.4 | 0.00 | 0.00 | 0.00 | 60 | 1018.8 |
| 20260504001540 | 21 | 116 | 3.2 | 11.3 | 0.00 | 0.00 | 0.00 | 59 | 1018.8 |
| 20260504000044 | 22 | 101 | 1.6 | 8.0 | 0.00 | 0.00 | 0.00 | 57 | 1019.0 |
| 20260503234540 | 22 | 94 | 3.2 | 12.9 | 0.00 | 0.00 | 0.00 | 57 | 1019.3 |
| 20260503233037 | 22 | 82 | 4.8 | 14.5 | 0.00 | 0.00 | 0.00 | 55 | 1019.4 |
| 20260503231540 | 23 | 344 | 1.6 | 11.3 | 0.00 | 0.00 | 0.00 | 54 | 1019.4 |
| 20260503230037 | 23 | 142 | 3.2 | 11.3 | 0.00 | 0.00 | 0.00 | 54 | 1019.6 |
| 20260503224537 | 23 | 181 | 3.2 | 11.3 | 0.00 | 0.00 | 0.00 | 54 | 1019.7 |
| 20260503223041 | 23 | 91 | 4.8 | 16.1 | 0.00 | 0.00 | 0.00 | 51 | 1019.9 |
| 20260503221539 | 24 | 127 | 3.2 | 12.9 | 0.00 | 0.00 | 0.00 | 53 | 1019.9 |
| 20260503220040 | 24 | 133 | 4.8 | 11.3 | 0.00 | 0.00 | 0.00 | 51 | 1020.1 |
| 20260503214537 | 24 | 66 | 4.8 | 12.9 | 0.00 | 0.00 | 0.00 | 52 | 1020.3 |
| 20260503213037 | 24 | 47 | 4.8 | 14.5 | 0.00 | 0.00 | 0.00 | 51 | 1020.4 |
| 20260503211540 | 25 | 93 | 4.8 | 14.5 | 0.00 | 0.00 | 0.00 | 49 | 1020.5 |
| 20260503210040 | 25 | 129 | 4.8 | 12.9 | 0.00 | 0.00 | 0.00 | 49 | 1020.7 |
| 20260503204539 | 25 | 336 | 4.8 | 16.1 | 0.00 | 0.00 | 0.00 | 50 | 1020.9 |
| 20260503203041 | 25 | 121 | 4.8 | 16.1 | 0.00 | 0.00 | 0.00 | 51 | 1021.0 |
| 20260503201538 | 25 | 70 | 4.8 | 12.9 | 0.00 | 0.00 | 0.00 | 51 | 1021.5 |
| 20260503200037 | 25 | 133 | 3.2 | 16.1 | 0.00 | 0.00 | 0.00 | 48 | 1021.5 |
| 20260503194543 | 25 | 91 | 4.8 | 16.1 | 0.00 | 0.00 | 0.00 | 50 | 1021.7 |
| 20260503193043 | 25 | 354 | 4.8 | 12.9 | 0.00 | 0.00 | 0.00 | 49 | 1021.8 |
| 20260503191540 | 25 | 105 | 4.8 | 17.7 | 0.00 | 0.00 | 0.00 | 49 | 1022.1 |
| 20260503190043 | 25 | 59 | 6.4 | 14.5 | 0.00 | 0.00 | 0.00 | 50 | 1022.2 |
| 20260503184547 | 25 | 103 | 3.2 | 17.7 | 0.00 | 0.00 | 0.00 | 49 | 1022.4 |
| 20260503183040 | 25 | 80 | 8.0 | 16.1 | 0.00 | 0.00 | 0.00 | 50 | 1022.6 |
| 20260503181539 | 25 | 127 | 4.8 | 16.1 | 0.00 | 0.00 | 0.00 | 49 | 1022.7 |
| 20260503180037 | 25 | 62 | 4.8 | 14.5 | 0.00 | 0.00 | 0.00 | 51 | 1022.8 |
| 20260503174559 | 25 | 72 | 4.8 | 14.5 | 0.00 | 0.00 | 0.00 | 53 | 1023.0 |
| 20260503173041 | 25 | 354 | 4.8 | 17.7 | 0.00 | 0.00 | 0.00 | 51 | 1023.0 |
| 20260503171537 | 25 | 56 | 3.2 | 16.1 | 0.00 | 0.00 | 0.00 | 52 | 1023.3 |